Regional Weather Roundup
Issued by NWS

Home | Current Version | Previous Version | Text Only | Print | Product List | Glossary On
Versions: 1 2 3 4 5 6 7 8 9 10 11 12 13 14 15 16 17 18 19 20 21 22 23 24 25 26 27 28 29 30 31 32 33 34 35 36 37 38 39 40 41 42 43 44 45 46 47 48 49 50
522
ASUS45 KTFX 271910
RWRMT
MONTANA REGIONAL WEATHER ROUNDUP
NATIONAL WEATHER SERVICE GREAT FALLS MT
100 PM MDT SAT AUG 27 2016

NOTE: "FAIR" INDICATES FEW OR NO CLOUDS BELOW 12000 FEET WITH NO
SIGNIFICANT WEATHER AND/OR OBSTRUCTIONS TO VISIBILITY.

MTZ001>007-043-272000-
WEST OF THE DIVIDE

CITY           SKY/WX    TMP DP  RH WIND       PRES   REMARKS
KALISPELL      CLOUDY    81  39  22 S10G18    29.74F
MISSOULA       MOSUNNY   79  37  22 VRB5      29.84F
BUTTE          SUNNY     72  29  20 VRB6      29.98F
MULLAN PASS    MOSUNNY   64  37  36 SW12G24   29.97S
DEER LODGE       N/A     77  36  22 W12G20    29.92F
EUREKA           N/A     81  39  22 S10G18    29.71S
HAMILTON         N/A     79  37  22 SW15G21   29.87F
LIBBY            N/A     81  39  22 S7        29.75S
PLAINS           N/A     80  43  27 W14       29.81F
RONAN            N/A     80  40  24 SW12      29.87F
THOMPSON FALLS   N/A     81  42  25 S7        29.84F
$$

MTZ008-052>055-272000-
SOUTHWEST MONTANA

CITY           SKY/WX    TMP DP  RH WIND       PRES   REMARKS
BOZEMAN        SUNNY     77  34  21 W6        29.92F
DILLON         SUNNY     75  31  19 SW16      29.97F
W YELLOWSTONE  CLOUDY    64  28  25 SW14      30.12F
ENNIS          SUNNY     77  25  14 S15G23    30.02F
THREE FORKS      N/A     78  78 100 N3        29.92F
TWIN BRIDGES     N/A     77  31  18 S10       29.96F
$$

MTZ009-010-012-014-046-048-049-054-272000-
EAST SLOPES AND CENTRAL MONTANA

CITY           SKY/WX    TMP DP  RH WIND       PRES   REMARKS
CUT BANK       CLOUDY    76  37  24 W26G35    29.74F
GREAT FALLS    SUNNY     78  34  20 SW22G28   29.79S
MALMSTROM AFB  SUNNY     77  36  22 MISG      29.79F
HELENA         CLOUDY    79  39  23 CALM      29.86F
CHOTEAU          N/A     81  37  21 W13G21    29.79S
CONRAD           N/A     81  44  26 S3        29.80F
$$

MTZ011-013-016-021-045-047-050-051-272000-
NORTH CENTRAL MONTANA

CITY           SKY/WX    TMP DP  RH WIND       PRES   REMARKS
HAVRE          SUNNY     83  40  21 SW23      29.70F
LEWISTOWN      SUNNY     78  37  22 VRB5      29.84F
N BAR RANCH      N/A     77  36  22 NW12      29.88F
CHINOOK          N/A     81  39  22 W9G16     29.70F
$$

MTZ017>020-022>027-061-062-272000-
NORTHEAST MONTANA

CITY           SKY/WX    TMP DP  RH WIND       PRES   REMARKS
GLASGOW        SUNNY     76  46  34 SE14G23   29.77F
JORDAN           N/A     82  39  21 SW14      29.79F
SIDNEY         SUNNY     78  48  34 S8        29.85
WOLF POINT     MOSUNNY   81  45  28 S7        29.80F
POPLAR           N/A     77  43  29 S13       29.81F
SCOBEY           N/A     76  41  28 SE8       29.82F
$$

MTZ028>42-056>058-272000-
SOUTHCENTRAL AND SOUTHEAST MONTANA

CITY           SKY/WX    TMP DP  RH WIND       PRES   REMARKS
BAKER          CLOUDY    75  45  34 S12       29.90F
BILLINGS       PTSUNNY   77  38  24 W15       29.88F
LIVINGSTON     SUNNY     77  32  19 W15G22    29.91F
MILES CITY     SUNNY     80  43  26 SW12      29.84F
EKALAKA          N/A     76  47  35 SE10      29.90F
FORSYTH          N/A     79  43  27 SE6       29.83F
ROUNDUP          N/A     75  39  27 S6        29.79F
$$

REGIONAL REPORTS...DAKOTAS

CITY           SKY/WX    TMP DP  RH WIND       PRES   REMARKS
WILLISTON      SUNNY     77  43  29 SE8       29.86F
MINOT          MOSUNNY   75  48  38 N6        29.88F
DICKINSON      SUNNY     73  40  30 W5        29.89F
CROSBY           N/A     75  41  29 S8        29.87F
WATFORD CITY     N/A     73  45  35 W3        29.88F
BISMARCK       SUNNY     76  51  41 SW7       29.92S
GRAND FORKS    CLOUDY    66  60  81 SE17      29.92S
FARGO          CLOUDY    63  59  87 S8        29.93R
BUFFALO SD       N/A     75  52  44 S9        29.87F
RAPID CITY     SUNNY     76  55  48 S15       29.94F
$$

REGIONAL REPORTS...WYOMING/IDAHO/WASHINGTON

CITY           SKY/WX    TMP DP  RH WIND       PRES   REMARKS
GILLETTE       SUNNY     81  35  19 W8        29.94F
SHERIDAN       CLOUDY    82  38  20 NE5       29.91F
BUFFALO WY     CLOUDY    79  33  19 VRB3      29.96F
CODY           CLOUDY    70  34  26 S3        29.99F
YELLOWSTONE LA   N/A     64  28  25 SW8G17    30.20S
IDAHO FALLS    SUNNY     76  31  19 SW18      30.05F
SALMON         SUNNY     70  34  26 NW6       29.93F
BOISE          MOSUNNY   84  31  14 CALM      29.95S
SPOKANE        PTSUNNY   80  39  23 SW21G31   29.76F
$$

REGIONAL REPORTS...ALBERTA

CITY           SKY/WX    TMP DP  RH WIND       PRES   REMARKS
EDMONTON       CLOUDY    61  55  82 NW3       29.58R
CALGARY        PTSUNNY   70  52  52 S6        29.60S
LETHBRIDGE     CLOUDY    82  41  23 W24G32    29.63F
MEDICINE HAT   PTSUNNY   81  48  32 S13G21    29.59F
$$

REGIONAL REPORTS...SASKATCHEWAN

CITY           SKY/WX    TMP DP  RH WIND       PRES   REMARKS
SWIFT CURRENT  CLOUDY    73  45  35 S26G37    29.69F
REGINA         MOSUNNY   75  45  33 S14G21    29.79F
SASKATOON      PTSUNNY   73  48  40 S18G31    29.71F
$$




USA.gov is the U.S. government's official web portal to all federal, state and local government web resources and services.